Terminal Aerodrome Forecast
Issued by NWS Twin Cities, MN

Home | Current Version | Previous Version | Text Only | Print | Product List | Glossary Off
Versions: 1 2 3 4 5 6 7 8 9 10 11 12 13 14 15 16 17 18 19 20 21 22 23 24 25

000
FTUS43 KMPX 200500
TAFMSP
TAF
KMSP 200525Z 2006/2112 VRB03KT P6SM VCSH OVC060
      TEMPO 2006/2008 5SM -SHRA BR
     FM201000 00000KT 4SM BR SCT070 BKN250
     FM201300 07004KT P6SM SCT250
     FM202200 09006KT P6SM SCT050
     FM210700 11003KT P6SM VCSH SCT050 BKN100=

USA.gov is the U.S. government's official web portal to all federal, state and local government web resources and services.